Вернуться в каталог

AMC-5

GE-5

АктивенСвязьGEO
NORAD 25516·PAYLOAD·🇱🇺 Luxembourg

Запущен Oct 28, 1998 с Guiana Space Centre

Loading…

TLE

СвежийSource: Space-Track

Эпоха: Sep 14, 2026, 05:58 UTC

1 25516U 98063B   26257.24873086 -.00000306  00000-0  00000-0 0  9995
2 25516  11.6011  39.4153 0001979 137.6494  57.4099  0.99336876101711

Отслеживайте AMC-5 в реальном времени с AllMySat

Download on the App Store